Showing default

SBS 5, 19484

Orbit data source: Space-Track

SBS 5, 19484 is a payload satellite owned by IBM STLC (US) in GEO that was launched on Thu, 08 Sep 1988 UTC via an ARIANE 3 launch vehicle from the French Guiana (FRGUI). Payload-class satellites include a variety of spacecraft equipped with specific instruments for various scientific and technological missions. These include communications satellites like Starlink; space stations such as the ISS; scientific satellites like the Hubble; Earth observation satellites from companies like Planet Labs, Umbra, and HawkEye 360; GPS; miniature CubeSats for education and research; and military/defense satellites.

Loading next visibility...
Identifier
19484, 1988-081B
Orbit
GEO
Country
Flag of USUS
Related business
Manufacturer
Hughes
Mission
Commercial Communications
Bus & Motor
HS-376, TE-M-700-17
Mass
1,246 kg wet, ~550 kg dry
Launch date (UTC)
1988-09-08 (37 years ago)
Launch vehicle
ARIANE 3
Launch site
French Guiana (FRGUI)
Object type
Payload
Rocket body
Debris
Shape & HBR
Cyl + 2 Pan, 3.3 m
Radar Cross Section
15.596 m², Large (>1 m²)

Expand to show TLE details & history
Last TLE update: 16 hours ago

TLE from 16 hours ago
0 SBS 5
1 19484U 88081B   25307.72511799  .00000081  00000-0  00000-0 0  9998
2 19484  14.5543   2.6265 0006776 289.2876 241.4266  0.99787216 44214
Epoch: 2025-11-03T17:24Z
TLE epoch observation values (Epoch: 2025-11-03T17:24:10.194Z)
Latitude
2.33715°
Longitude
-130.71681°
Altitude
35,935.878 km
Speed
3.069 km/s
True Right ascension
11h 34m 11s
True Declination
2° 20' 05"
Sunlit
Object was in daylight at epoch
Visualization orbit readout
Latitude
Unknown
Longitude
Unknown
Altitude
Unknown
Speed
Unknown
Apparent Right ascension
Unknown
Apparent Declination
Unknown
Sunlit
N/A
Visualization observer readout
Local Sidereal Time
05:00:59
Azimuth
Unknown
Elevation
Unknown
Doppler factor
Unknown
Orbital elements
Apogee altitude
35,952.619 km
Perigee altitude
35,895.291 km
Semi-major axis
42,302.092 km
Eccentricity
0.00068
Inclination
14.5543°
RAAN
2.6265°
Arg. of periapsis
289.2876°
True anomaly
241.35844°
Mean anomaly
241.4266°
Eccentric anomaly
241.39252°
Mean motion
0.24946 °/min
Orbital period
1,443.12 mins
BSTAR
0
Loading maneuver chart data...
Computing Atmospheric mass density...
Loading historical data...
Loading historical data...
Loading historical data...
Loading historical data...
Loading historical data...
Loading historical data...
Loading historical data...

Documentation

Showing up to 5 results
|